Content
SEND FEEDBACK

Daily
Averages
Monthly
Summary
United States of America

MALDEN, MISSOURI


Home > North America > United States > Missouri
Elevation: 295 feet     Latitude: 36 36N     Longitude: 089 59W

WEATHER
 
SELECT A DAY
Number of Records: 207,566;   Date Range: 1/1/95 - 7/20/14
 
SHARE

PRINT THIS DATA

[ ← Previous Day ]
WEATHER ALMANAC - DECEMBER 8, 2013
[ Next Day → ]
[ °C ]   °F
Weather ElementAverageHighLow
Temperature26.6 °F28.9 °F (4:53 pm)21.9 °F (1:53 am)
Dewpoint20.3 °F24.1 °F (4:53 pm)12.9 °F (1:53 am)
Humidity77.2 %82 % (4:53 pm)65 % (2:53 am)
Barometer30.17 in30.37 in (1:53 am)30.06 in (2:05 pm)
Wind Speed6.2 mph11.5 mph (2:53 am)
Weather ElementAverage
Visibility4.1 mi
Wind DirectionESE (117.2 °)

Weather ElementTotal
Precipitation0.04 in
Heating Degree Days39.6 (Base 65)
Averaged from 47 records on December 8, 2013
WEATHER CONDITIONS BREAKOUT
WIND DIRECTION BREAKOUT
WEATHER BY HOUR - DECEMBER 8, 2013
[ °C ]   °F
Local TimeTemperatureDewpointHumidityBarometerVisibilityWind DirectionWind SpeedGust SpeedPrecipitationEventsConditions
1:53 AM21.9 °F12.9 °F68 %30.37 in9.0 miNNE (30°)9.2 mph0.00 inSnowLight Snow
2:53 AM23.0 °F12.9 °F65 %30.32 in9.0 miNE (40°)11.5 mph0.00 inSnowLight Snow
3:53 AM23.0 °F14.0 °F68 %30.29 in9.0 miNNE (20°)11.5 mph0.00 inSnowLight Snow
4:11 AM24.1 °F14.0 °F65 %30.26 in9.0 miNNE (30°)9.2 mph0.00 inSnowLight Snow
4:53 AM24.1 °F15.1 °F69 %30.28 in8.0 miNNE (30°)9.2 mph0.00 inSnowLight Snow
5:06 AM24.1 °F15.1 °F69 %30.25 in9.0 miNE (40°)9.2 mph0.00 inSnowLight Snow
5:53 AM24.1 °F15.1 °F69 %30.27 in9.0 miNE (50°)6.9 mph0.00 inSnowLight Snow
6:34 AM24.1 °F16.0 °F71 %30.24 in8.0 miNNE (30°)5.8 mph0.00 inSnowLight Snow
6:53 AM24.1 °F16.0 °F71 %30.27 in4.0 miNE (40°)6.9 mph0.00 inSnowLight Snow
7:13 AM24.1 °F17.1 °F75 %30.23 in2.0 miNE (50°)6.9 mph0.01 inSnowLight Snow
7:21 AM24.1 °F18.0 °F77 %30.23 in1.8 miNE (40°)6.9 mph0.01 inSnowLight Snow
7:33 AM24.1 °F18.0 °F77 %30.22 in2.0 miNE (40°)5.8 mph0.01 inSnowLight Snow
7:53 AM24.1 °F18.0 °F77 %30.26 in2.5 miNNE (20°)5.8 mph0.01 inSnowLight Snow
7:59 AM24.1 °F18.0 °F77 %30.23 in3.0 miNNE (20°)5.8 mph0.00 inSnowLight Snow
8:53 AM24.1 °F18.0 °F77 %30.25 in2.5 miNE (40°)6.9 mph0.00 inSnowLight Snow
9:43 AM25.0 °F19.0 °F78 %30.21 in1.8 miNE (40°)5.8 mph0.00 inSnowLight Snow
9:53 AM25.0 °F19.0 °F78 %30.24 in1.8 miNE (40°)6.9 mph0.00 inSnowLight Snow
10:38 AM26.1 °F19.9 °F78 %30.19 in1.5 miNE (50°)5.8 mph0.00 inSnowLight Snow
10:53 AM26.1 °F19.9 °F78 %30.20 in1.5 miNE (40°)5.8 mph0.00 inSnowLight Snow
11:13 AM26.1 °F19.9 °F78 %30.17 in2.0 miNE (40°)4.6 mph0.00 inSnowLight Snow
11:23 AM26.1 °F19.9 °F78 %30.16 in2.5 miNNE (30°)5.8 mph0.00 inSnowLight Snow
11:53 AM27.0 °F21.0 °F78 %30.16 in2.5 miNE (40°)4.6 mph0.00 inSnowLight Snow
12:10 PM27.0 °F21.0 °F78 %30.13 in3.0 miNNE (30°)4.6 mph0.00 inSnowLight Snow
12:53 PM28.0 °F21.9 °F78 %30.15 in3.0 miCalm0.00 inHaze
1:04 PM27.0 °F21.9 °F81 %30.12 in1.8 miCalmHaze
1:53 PM28.0 °F23.0 °F81 %30.08 in1.5 miEast (100°)4.6 mph0.00 inSnowLight Snow
2:05 PM28.0 °F23.0 °F81 %30.06 in1.8 miVariable4.6 mph0.00 inSnowLight Snow
2:53 PM28.0 °F23.0 °F81 %30.09 in3.0 miSouth (190°)4.6 mph0.00 inSnowLight Snow
3:17 PM28.0 °F23.0 °F81 %30.07 in2.5 miSSW (200°)5.8 mph0.00 inSnowLight Snow
3:43 PM28.0 °F23.0 °F81 %30.07 in2.5 miSouth (190°)4.6 mph0.00 inSnowLight Snow
3:53 PM28.0 °F23.0 °F81 %30.10 in2.0 miSSW (210°)6.9 mph0.00 inSnowLight Snow
4:04 PM28.0 °F23.0 °F81 %30.07 in1.8 miSSW (210°)6.9 mph0.00 inSnowLight Snow
4:53 PM28.9 °F24.1 °F82 %30.11 in1.0 miSSW (210°)6.9 mph0.00 inSnowLight Snow
5:09 PM28.9 °F24.1 °F82 %30.08 in1.5 miSSW (210°)6.9 mph0.00 inSnowLight Snow
5:29 PM28.9 °F24.1 °F82 %30.09 in2.0 miSW (230°)5.8 mph0.00 inSnowLight Snow
5:36 PM28.9 °F24.1 °F82 %30.09 in2.0 miSW (230°)6.9 mph0.00 inSnowLight Snow
5:53 PM28.9 °F24.1 °F82 %30.11 in2.0 miWSW (240°)5.8 mph0.00 inSnowLight Snow
6:39 PM28.9 °F24.1 °F82 %30.09 in3.0 miWest (260°)6.9 mph0.00 inSnowLight Snow
6:53 PM28.9 °F24.1 °F82 %30.12 in4.0 miWSW (240°)5.8 mph0.00 inSnowLight Snow
7:06 PM28.9 °F24.1 °F82 %30.10 in5.0 miWSW (240°)6.9 mph0.00 inSnowLight Snow
7:53 PM28.9 °F23.0 °F78 %30.13 in6.0 miSW (230°)6.9 mph0.00 inSnowLight Snow
8:53 PM28.9 °F23.0 °F78 %30.15 in7.0 miWSW (250°)8.1 mph0.00 inSnowLight Snow
9:21 PM28.9 °F23.0 °F78 %30.12 in7.0 miWSW (240°)4.6 mph0.00 inSnowLight Snow
9:53 PM28.9 °F23.0 °F78 %30.16 in7.0 miWSW (250°)5.8 mph0.00 inSnowLight Snow
10:45 PM28.9 °F23.0 °F78 %30.14 in7.0 miWest (270°)4.6 mph0.00 inSnowLight Snow
10:53 PM28.9 °F23.0 °F78 %30.16 in7.0 miWest (280°)4.6 mph0.00 inSnowLight Snow
11:53 PM28.9 °F23.0 °F78 %30.17 in7.0 miSSW (200°)3.5 mph0.00 inSnowLight Snow
Hourly data recorded from KPOF, located miles away from Malden, Missouri







STORIES FROM OUR PARTNERS